Estación Meteorológica Peña el Pijo (Robertgarden) [ 09/29/20 21:32:46 CEST ]

Fecha Hora Presion(HPa) Temp (°C) Humedad % Rocio (°C) Viento ( m/s) Direccion Lluvia 1Hora(mm) Lluvia 24H(mm) LLuvia Total(mm)
2020-Mar-26 01:09:06 1000.800 - - - - N     39.88
2020-Mar-26 02:13:47 1001.100 - - - - N     39.88
2020-Mar-26 03:09:17 1000.300 - - - - N     39.88
2020-Mar-26 04:09:30 999.300 - - - - N     39.88
2020-Mar-26 05:09:23 998.900 - - - - N     39.88
2020-Mar-26 06:09:22 998.400 - - - - N     39.88
2020-Mar-26 07:09:02 998.100 - - - - N     39.88
2020-Mar-26 08:08:56 997.900 - - - - N     39.88
2020-Mar-26 09:09:09 997.800 - - - - N     39.88
2020-Mar-26 10:09:12 998.100 - - - - N     39.88
2020-Mar-26 11:09:07 998.200 - - - - N     39.88
2020-Mar-26 12:09:14 997.800 - - - - N     39.88
2020-Mar-26 13:09:13 997.500 - - - - N     39.88
2020-Mar-26 14:09:17 996.900 - - - - N     39.88
2020-Mar-26 15:09:24 996.600 - - - - N     39.88
2020-Mar-26 16:09:06 996.800 - - - - N     39.88
2020-Mar-26 17:09:30 996.400 - - - - N     39.88
2020-Mar-26 18:09:07 996.600 - - - - N     39.88
2020-Mar-26 19:08:51 996.800 - - - - N     39.88
2020-Mar-26 20:09:00 997.700 - - - - N     39.88
2020-Mar-26 21:09:18 998.300 - - - - N     39.88
2020-Mar-26 22:09:39 998.600 - - - - N     39.88
2020-Mar-26 23:09:19 998.500 - - - - N     39.88

Temperatura Máxima:    Temperatura Mínima:
Presión Máxima:1001.100 Hpa    Presión Mínima:996.400 Hpa


Volver